Location: Belfast
(54.5830°N, 5.9330°W)
Time: 14:08:11
(UTC+01:00)

ISS - Pass Details

Date: 23 May 2017
Orbit: 402 x 408 km, 51.6° (Epoch: 26 May)

Event Time Altitude Azimuth Distance (km) Brightness Sun altitude
Rises 03:21:49 0° 272° (W) 2,332 -0.2 -10.5°
Reaches altitude 10° 03:23:58 10° 265° (W) 1,469 -1.3 -10.3°
Maximum altitude 03:27:04 39° 195° (SSW) 627 -3.4 -10.1°
Drops below altitude 10° 03:30:09 10° 125° (SE) 1,461 -1.0 -9.9°
Sets 03:32:18 0° 117° (ESE) 2,318 0.1 -9.7°
